Year,Month,Day,Hour,Minute,Value (Times are PST for temperature in C)
2015,12,10,00,00,8.90
2015,12,10,00,01,8.90
2015,12,10,00,02,8.90
2015,12,10,00,03,8.80
2015,12,10,00,04,8.80
2015,12,10,00,05,8.80
2015,12,10,00,06,8.80
2015,12,10,00,07,8.80
2015,12,10,00,08,8.80
2015,12,10,00,09,8.80
2015,12,10,00,10,8.80
2015,12,10,00,11,8.80
2015,12,10,00,12,8.80
2015,12,10,00,13,8.80
2015,12,10,00,14,8.80
2015,12,10,00,15,8.80
2015,12,10,00,16,8.70
2015,12,10,00,17,8.70
2015,12,10,00,18,8.70
2015,12,10,00,19,8.70
2015,12,10,00,20,8.70
2015,12,10,00,21,8.70
2015,12,10,00,22,8.70
2015,12,10,00,23,8.60
2015,12,10,00,24,8.60
2015,12,10,00,25,8.60
2015,12,10,00,26,8.60
2015,12,10,00,27,8.60
2015,12,10,00,28,8.70
2015,12,10,00,29,8.70
2015,12,10,00,30,8.70
2015,12,10,00,31,8.70
2015,12,10,00,32,8.70
2015,12,10,00,33,8.70
2015,12,10,00,34,8.70
2015,12,10,00,35,8.70
2015,12,10,00,36,8.70
2015,12,10,00,37,8.70
2015,12,10,00,38,8.80
2015,12,10,00,39,8.80
2015,12,10,00,40,8.80
2015,12,10,00,41,8.80
2015,12,10,00,42,8.80
2015,12,10,00,43,8.80
2015,12,10,00,44,8.80
2015,12,10,00,45,8.80
2015,12,10,00,46,8.80
2015,12,10,00,47,8.80
2015,12,10,00,48,8.80
2015,12,10,00,49,8.80
2015,12,10,00,50,8.90
2015,12,10,00,51,8.90
2015,12,10,00,52,8.90
2015,12,10,00,53,8.90
2015,12,10,00,54,8.90
2015,12,10,00,55,8.90
2015,12,10,00,56,8.90
2015,12,10,00,57,8.90
2015,12,10,00,58,8.90
2015,12,10,00,59,8.90
2015,12,10,01,00,8.90
2015,12,10,01,01,8.90
2015,12,10,01,02,8.90
2015,12,10,01,03,8.90
2015,12,10,01,04,8.90
2015,12,10,01,05,8.90
2015,12,10,01,06,9.00
2015,12,10,01,07,9.00
2015,12,10,01,08,9.00
2015,12,10,01,09,9.00
2015,12,10,01,10,9.00
2015,12,10,01,11,9.00
2015,12,10,01,12,9.00
2015,12,10,01,13,8.90
2015,12,10,01,14,8.90
2015,12,10,01,15,8.90
2015,12,10,01,16,8.90
2015,12,10,01,17,8.90
2015,12,10,01,18,8.90
2015,12,10,01,19,8.90
2015,12,10,01,20,8.90
2015,12,10,01,21,8.90
2015,12,10,01,22,8.90
2015,12,10,01,23,8.90
2015,12,10,01,24,8.90
2015,12,10,01,25,9.00
2015,12,10,01,26,9.00
2015,12,10,01,27,9.00
2015,12,10,01,28,9.00
2015,12,10,01,29,9.00
2015,12,10,01,30,9.00
2015,12,10,01,31,9.00
2015,12,10,01,32,9.10
2015,12,10,01,33,9.10
2015,12,10,01,34,9.10
2015,12,10,01,35,9.10
2015,12,10,01,36,9.10
2015,12,10,01,37,9.10
2015,12,10,01,38,9.10
2015,12,10,01,39,9.10
2015,12,10,01,40,9.00
2015,12,10,01,41,9.00
2015,12,10,01,42,8.90
2015,12,10,01,43,8.90
2015,12,10,01,44,8.90
2015,12,10,01,45,8.90
2015,12,10,01,49,9.00
2015,12,10,01,50,9.00
2015,12,10,01,51,9.00
2015,12,10,01,52,9.00
2015,12,10,01,53,8.90
2015,12,10,01,54,8.90
2015,12,10,01,55,8.90
2015,12,10,01,56,8.90
2015,12,10,01,57,8.90
2015,12,10,01,58,8.90
2015,12,10,01,59,8.90
2015,12,10,02,00,8.80
2015,12,10,02,01,8.80
2015,12,10,02,02,8.80
2015,12,10,02,03,8.80
2015,12,10,02,04,8.80
2015,12,10,02,05,8.80
2015,12,10,02,06,8.80
2015,12,10,02,07,8.80
2015,12,10,02,08,8.80
2015,12,10,02,09,8.80
2015,12,10,02,10,8.80
2015,12,10,02,11,8.80
2015,12,10,02,12,8.80
2015,12,10,02,13,8.70
2015,12,10,02,14,8.70
2015,12,10,02,15,8.70
2015,12,10,02,16,8.70
2015,12,10,02,17,8.70
2015,12,10,02,18,8.70
2015,12,10,02,19,8.70
2015,12,10,02,20,8.70
2015,12,10,02,21,8.70
2015,12,10,02,22,8.70
2015,12,10,02,23,8.70
2015,12,10,02,24,8.70
2015,12,10,02,25,8.70
2015,12,10,02,26,8.70
2015,12,10,02,27,8.60
2015,12,10,02,28,8.60
2015,12,10,02,29,8.60
2015,12,10,02,30,8.60
2015,12,10,02,31,8.60
2015,12,10,02,32,8.60
2015,12,10,02,33,8.60
2015,12,10,02,34,8.60
2015,12,10,02,35,8.50
2015,12,10,02,36,8.50
2015,12,10,02,37,8.50
2015,12,10,02,38,8.40
2015,12,10,02,39,8.40
2015,12,10,02,40,8.40
2015,12,10,02,41,8.40
2015,12,10,02,42,8.40
2015,12,10,02,43,8.40
2015,12,10,02,44,8.40
2015,12,10,02,45,8.40
2015,12,10,02,46,8.40
2015,12,10,02,47,8.40
2015,12,10,02,48,8.40
2015,12,10,02,49,8.40
2015,12,10,02,50,8.40
2015,12,10,02,51,8.40
2015,12,10,02,52,8.40
2015,12,10,02,53,8.40
2015,12,10,02,54,8.40
2015,12,10,02,55,8.30
2015,12,10,02,56,8.30
2015,12,10,02,57,8.30
2015,12,10,02,58,8.30
2015,12,10,02,59,8.20
2015,12,10,03,00,8.20
2015,12,10,03,01,8.20
2015,12,10,03,02,8.20
2015,12,10,03,03,8.20
2015,12,10,03,04,8.20
2015,12,10,03,05,8.20
2015,12,10,03,06,8.20
2015,12,10,03,07,8.20
2015,12,10,03,08,8.20
2015,12,10,03,09,8.20
2015,12,10,03,10,8.20
2015,12,10,03,11,8.30
2015,12,10,03,12,8.30
2015,12,10,03,13,8.30
2015,12,10,03,14,8.30
2015,12,10,03,15,8.30
2015,12,10,03,16,8.40
2015,12,10,03,17,8.40
2015,12,10,03,18,8.40
2015,12,10,03,19,8.40
2015,12,10,03,20,8.50
2015,12,10,03,21,8.50
2015,12,10,03,22,8.50
2015,12,10,03,23,8.60
2015,12,10,03,24,8.60
2015,12,10,03,25,8.60
2015,12,10,03,26,8.60
2015,12,10,03,27,8.60
2015,12,10,03,28,8.60
2015,12,10,03,29,8.60
2015,12,10,03,30,8.60
2015,12,10,03,31,8.60
2015,12,10,03,32,8.60
2015,12,10,03,33,8.50
2015,12,10,03,34,8.50
2015,12,10,03,35,8.50
2015,12,10,03,36,8.50
2015,12,10,03,37,8.50
2015,12,10,03,38,8.50
2015,12,10,03,39,8.50
2015,12,10,03,40,8.50
2015,12,10,03,41,8.50
2015,12,10,03,42,8.50
2015,12,10,03,43,8.50
2015,12,10,03,44,8.50
2015,12,10,03,45,8.50
2015,12,10,03,46,8.40
2015,12,10,03,47,8.40
2015,12,10,03,48,8.40
2015,12,10,03,49,8.40
2015,12,10,03,50,8.40
2015,12,10,03,51,8.40
2015,12,10,03,52,8.40
2015,12,10,03,53,8.40
2015,12,10,03,54,8.40
2015,12,10,03,55,8.40
2015,12,10,03,56,8.40
2015,12,10,03,57,8.40
2015,12,10,03,58,8.40
2015,12,10,03,59,8.40
2015,12,10,04,00,8.40
2015,12,10,04,01,8.40
2015,12,10,04,02,8.30
2015,12,10,04,03,8.30
2015,12,10,04,04,8.30
2015,12,10,04,05,8.30
2015,12,10,04,06,8.30
2015,12,10,04,07,8.30
2015,12,10,04,08,8.30
2015,12,10,04,09,8.30
2015,12,10,04,10,8.30
2015,12,10,04,11,8.30
2015,12,10,04,12,8.20
2015,12,10,04,13,8.20
2015,12,10,04,14,8.20
2015,12,10,04,15,8.20
2015,12,10,04,16,8.20
2015,12,10,04,17,8.20
2015,12,10,04,18,8.20
2015,12,10,04,19,8.20
2015,12,10,04,20,8.20
2015,12,10,04,21,8.20
2015,12,10,04,22,8.20
2015,12,10,04,23,8.20
2015,12,10,04,24,8.30
2015,12,10,04,25,8.30
2015,12,10,04,26,8.30
2015,12,10,04,27,8.30
2015,12,10,04,28,8.30
2015,12,10,04,29,8.30
2015,12,10,04,30,8.30
2015,12,10,04,31,8.30
2015,12,10,04,32,8.20
2015,12,10,04,33,8.20
2015,12,10,04,34,8.20
2015,12,10,04,35,8.10
2015,12,10,04,36,8.10
2015,12,10,04,37,8.10
2015,12,10,04,38,8.10
2015,12,10,04,39,8.00
2015,12,10,04,40,8.00
2015,12,10,04,41,8.00
2015,12,10,04,42,7.90
2015,12,10,04,43,8.00
2015,12,10,04,44,8.00
2015,12,10,04,45,7.90
2015,12,10,04,46,7.90
2015,12,10,04,47,7.90
2015,12,10,04,48,7.90
2015,12,10,04,49,7.90
2015,12,10,04,50,7.90
2015,12,10,04,51,7.90
2015,12,10,04,52,7.80
2015,12,10,04,53,7.80
2015,12,10,04,54,7.80
2015,12,10,04,55,7.70
2015,12,10,04,56,7.70
2015,12,10,04,57,7.70
2015,12,10,04,58,7.60
2015,12,10,04,59,7.60
2015,12,10,05,00,7.60
2015,12,10,05,01,7.60
2015,12,10,05,02,7.60
2015,12,10,05,03,7.60
2015,12,10,05,04,7.60
2015,12,10,05,05,7.70
2015,12,10,05,06,7.70
2015,12,10,05,07,7.70
2015,12,10,05,08,7.70
2015,12,10,05,09,7.70
2015,12,10,05,10,7.80
2015,12,10,05,11,7.80
2015,12,10,05,12,7.80
2015,12,10,05,13,7.80
2015,12,10,05,14,7.80
2015,12,10,05,15,7.80
2015,12,10,05,16,7.80
2015,12,10,05,17,7.80
2015,12,10,05,18,7.80
2015,12,10,05,19,7.80
2015,12,10,05,20,7.70
2015,12,10,05,21,7.70
2015,12,10,05,22,7.70
2015,12,10,05,23,7.60
2015,12,10,05,24,7.60
2015,12,10,05,25,7.50
2015,12,10,05,26,7.50
2015,12,10,05,27,7.50
2015,12,10,05,28,7.40
2015,12,10,05,29,7.40
2015,12,10,05,30,7.40
2015,12,10,05,31,7.30
2015,12,10,05,32,7.30
2015,12,10,05,33,7.30
2015,12,10,05,34,7.20
2015,12,10,05,35,7.20
2015,12,10,05,36,7.20
2015,12,10,05,37,7.20
2015,12,10,05,38,7.20
2015,12,10,05,39,7.20
2015,12,10,05,40,7.20
2015,12,10,05,41,7.20
2015,12,10,05,42,7.20
2015,12,10,05,43,7.10
2015,12,10,05,44,7.10
2015,12,10,05,45,7.10
2015,12,10,05,46,7.10
2015,12,10,05,47,7.10
2015,12,10,05,48,7.10
2015,12,10,05,49,7.10
2015,12,10,05,50,7.00
2015,12,10,05,51,7.00
2015,12,10,05,52,7.00
2015,12,10,05,53,7.00
2015,12,10,05,54,7.00
2015,12,10,05,55,7.00
2015,12,10,05,56,7.00
2015,12,10,05,57,7.00
2015,12,10,05,58,7.00
2015,12,10,05,59,7.00
2015,12,10,06,00,7.00
2015,12,10,06,01,7.00
2015,12,10,06,02,7.10
2015,12,10,06,03,7.10
2015,12,10,06,04,7.10
2015,12,10,06,05,7.20
2015,12,10,06,06,7.20
2015,12,10,06,07,7.20
2015,12,10,06,08,7.20
2015,12,10,06,09,7.20
2015,12,10,06,10,7.20
2015,12,10,06,11,7.30
2015,12,10,06,12,7.30
2015,12,10,06,13,7.40
2015,12,10,06,14,7.40
2015,12,10,06,15,7.40
2015,12,10,06,16,7.40
2015,12,10,06,17,7.50
2015,12,10,06,18,7.50
2015,12,10,06,19,7.60
2015,12,10,06,20,7.60
2015,12,10,06,21,7.60
2015,12,10,06,22,7.60
2015,12,10,06,23,7.70
2015,12,10,06,24,7.70
2015,12,10,06,25,7.70
2015,12,10,06,26,7.70
2015,12,10,06,27,7.70
2015,12,10,06,28,7.70
2015,12,10,06,29,7.70
2015,12,10,06,30,7.80
2015,12,10,06,31,7.80
2015,12,10,06,32,7.80
2015,12,10,06,33,7.80
2015,12,10,06,34,7.80
2015,12,10,06,35,7.80
2015,12,10,06,36,7.80
2015,12,10,06,37,7.80
2015,12,10,06,38,7.80
2015,12,10,06,39,7.80
2015,12,10,06,40,7.80
2015,12,10,06,41,7.90
2015,12,10,06,42,7.90
2015,12,10,06,43,7.90
2015,12,10,06,44,7.90
2015,12,10,06,45,7.90
2015,12,10,06,46,7.90
2015,12,10,06,47,7.90
2015,12,10,06,48,8.00
2015,12,10,06,49,8.00
2015,12,10,06,50,8.00
2015,12,10,06,51,8.00
2015,12,10,06,52,8.00
2015,12,10,06,53,8.00
2015,12,10,06,54,8.00
2015,12,10,06,55,8.00
2015,12,10,06,56,8.00
2015,12,10,06,57,8.00
2015,12,10,06,58,8.00
2015,12,10,06,59,8.00
2015,12,10,07,00,8.00
2015,12,10,07,01,8.00
2015,12,10,07,02,8.00
2015,12,10,07,03,8.00
2015,12,10,07,04,8.00
2015,12,10,07,05,8.00
2015,12,10,07,06,8.00
2015,12,10,07,07,8.00
2015,12,10,07,08,8.00
2015,12,10,07,09,8.00
2015,12,10,07,10,8.00
2015,12,10,07,11,8.00
2015,12,10,07,12,8.00
2015,12,10,07,13,8.00
2015,12,10,07,14,8.00
2015,12,10,07,15,8.00
2015,12,10,07,16,8.00
2015,12,10,07,17,8.00
2015,12,10,07,18,8.00
2015,12,10,07,19,8.00
2015,12,10,07,20,8.10
2015,12,10,07,21,8.10
2015,12,10,07,22,8.10
2015,12,10,07,23,8.10
2015,12,10,07,24,8.10
2015,12,10,07,25,8.10
2015,12,10,07,26,8.10
2015,12,10,07,27,8.10
2015,12,10,07,28,8.10
2015,12,10,07,29,8.10
2015,12,10,07,30,8.10
2015,12,10,07,31,8.10
2015,12,10,07,32,8.10
2015,12,10,07,33,8.10
2015,12,10,07,34,8.10
2015,12,10,07,35,8.20
2015,12,10,07,36,8.20
2015,12,10,07,37,8.20
2015,12,10,07,38,8.20
2015,12,10,07,39,8.20
2015,12,10,07,40,8.20
2015,12,10,07,41,8.20
2015,12,10,07,42,8.20
2015,12,10,07,43,8.20
2015,12,10,07,44,8.20
2015,12,10,07,45,8.20
2015,12,10,07,46,8.20
2015,12,10,07,47,8.20
2015,12,10,07,48,8.20
2015,12,10,07,49,8.30
2015,12,10,07,50,8.30
2015,12,10,07,51,8.30
2015,12,10,07,52,8.30
2015,12,10,07,53,8.30
2015,12,10,07,54,8.30
2015,12,10,07,55,8.30
2015,12,10,07,56,8.30
2015,12,10,07,57,8.30
2015,12,10,07,58,8.30
2015,12,10,07,59,8.40
2015,12,10,08,00,8.40
2015,12,10,08,01,8.40
2015,12,10,08,02,8.40
2015,12,10,08,03,8.40
2015,12,10,08,04,8.40
2015,12,10,08,05,8.40
2015,12,10,08,06,8.40
2015,12,10,08,07,8.40
2015,12,10,08,08,8.50
2015,12,10,08,09,8.50
2015,12,10,08,10,8.50
2015,12,10,08,11,8.50
2015,12,10,08,12,8.50
2015,12,10,08,13,8.60
2015,12,10,08,14,8.60
2015,12,10,08,15,8.60
2015,12,10,08,16,8.60
2015,12,10,08,17,8.60
2015,12,10,08,18,8.60
2015,12,10,08,19,8.60
2015,12,10,08,20,8.60
2015,12,10,08,21,8.60
2015,12,10,08,22,8.60
2015,12,10,08,23,8.70
2015,12,10,08,24,8.70
2015,12,10,08,25,8.70
2015,12,10,08,26,8.70
2015,12,10,08,27,8.70
2015,12,10,08,28,8.70
2015,12,10,08,29,8.80
2015,12,10,08,30,8.80
2015,12,10,08,31,8.80
2015,12,10,08,32,8.80
2015,12,10,08,33,8.80
2015,12,10,08,34,8.80
2015,12,10,08,35,8.80
2015,12,10,08,36,8.80
2015,12,10,08,37,8.80
2015,12,10,08,38,8.80
2015,12,10,08,39,8.80
2015,12,10,08,40,8.80
2015,12,10,08,41,8.80
2015,12,10,08,42,8.80
2015,12,10,08,43,8.90
2015,12,10,08,44,8.90
2015,12,10,08,45,8.90
2015,12,10,08,46,8.90
2015,12,10,08,47,8.90
2015,12,10,08,48,8.90
2015,12,10,08,49,8.90
2015,12,10,08,50,8.90
2015,12,10,08,51,8.90
2015,12,10,08,52,8.90
2015,12,10,08,53,8.90
2015,12,10,08,54,8.90
2015,12,10,08,55,8.90
2015,12,10,08,56,8.90
2015,12,10,08,57,8.90
2015,12,10,08,58,8.90
2015,12,10,08,59,9.00
2015,12,10,09,00,9.00
2015,12,10,09,01,9.00
2015,12,10,09,02,9.00
2015,12,10,09,03,9.00
2015,12,10,09,04,9.00
2015,12,10,09,05,9.00
2015,12,10,09,06,9.00
2015,12,10,09,07,9.00
2015,12,10,09,08,9.00
2015,12,10,09,09,9.10
2015,12,10,09,10,9.10
2015,12,10,09,11,9.10
2015,12,10,09,12,9.00
2015,12,10,09,13,9.00
2015,12,10,09,14,9.00
2015,12,10,09,15,9.00
2015,12,10,09,16,9.00
2015,12,10,09,17,8.90
2015,12,10,09,18,8.90
2015,12,10,09,19,8.90
2015,12,10,09,20,8.90
2015,12,10,09,21,8.80
2015,12,10,09,22,8.80
2015,12,10,09,23,8.70
2015,12,10,09,24,8.60
2015,12,10,09,25,8.60
2015,12,10,09,26,8.50
2015,12,10,09,27,8.50
2015,12,10,09,28,8.40
2015,12,10,09,29,8.30
2015,12,10,09,30,8.30
2015,12,10,09,31,8.20
2015,12,10,09,32,8.20
2015,12,10,09,33,8.20
2015,12,10,09,34,8.10
2015,12,10,09,35,8.10
2015,12,10,09,36,8.10
2015,12,10,09,37,8.00
2015,12,10,09,38,8.00
2015,12,10,09,39,8.00
2015,12,10,09,40,7.90
2015,12,10,09,41,7.90
2015,12,10,09,42,7.90
2015,12,10,09,43,7.90
2015,12,10,09,44,7.90
2015,12,10,09,45,7.90
2015,12,10,09,46,7.90
2015,12,10,09,47,7.90
2015,12,10,09,48,7.90
2015,12,10,09,49,7.90
2015,12,10,09,50,7.90
2015,12,10,09,51,8.00
2015,12,10,09,52,8.00
2015,12,10,09,53,8.00
2015,12,10,09,54,8.00
2015,12,10,09,55,8.00
2015,12,10,09,56,8.00
2015,12,10,09,57,8.00
2015,12,10,09,58,8.00
2015,12,10,09,59,8.00
2015,12,10,10,00,8.00
2015,12,10,10,01,8.00
2015,12,10,10,02,8.00
2015,12,10,10,03,8.00
2015,12,10,10,04,8.00
2015,12,10,10,05,8.10
2015,12,10,10,06,8.10
2015,12,10,10,07,8.10
2015,12,10,10,08,8.20
2015,12,10,10,09,8.20
2015,12,10,10,10,8.20
2015,12,10,10,11,8.20
2015,12,10,10,12,8.30
2015,12,10,10,13,8.40
2015,12,10,10,14,8.40
2015,12,10,10,15,8.40
2015,12,10,10,16,8.40
2015,12,10,10,17,8.50
2015,12,10,10,18,8.50
2015,12,10,10,19,8.50
2015,12,10,10,20,8.60
2015,12,10,10,21,8.60
2015,12,10,10,22,8.70
2015,12,10,10,23,8.70
2015,12,10,10,24,8.80
2015,12,10,10,25,8.80
2015,12,10,10,26,8.80
2015,12,10,10,27,8.80
2015,12,10,10,28,8.80
2015,12,10,10,29,8.80
2015,12,10,10,30,8.80
2015,12,10,10,31,8.90
2015,12,10,10,32,8.90
2015,12,10,10,33,8.90
2015,12,10,10,34,8.90
2015,12,10,10,35,8.90
2015,12,10,10,36,8.90
2015,12,10,10,37,8.90
2015,12,10,10,38,8.90
2015,12,10,10,39,8.90
2015,12,10,10,40,8.90
2015,12,10,10,41,8.90
2015,12,10,10,42,8.90
2015,12,10,10,43,8.90
2015,12,10,10,44,8.80
2015,12,10,10,45,8.80
2015,12,10,10,46,8.70
2015,12,10,10,47,8.70
2015,12,10,10,48,8.60
2015,12,10,10,49,8.50
2015,12,10,10,50,8.50
2015,12,10,10,51,8.40
2015,12,10,10,52,8.40
2015,12,10,10,53,8.30
2015,12,10,10,54,8.30
2015,12,10,10,55,8.30
2015,12,10,10,56,8.20
2015,12,10,10,57,8.20
2015,12,10,10,58,8.10
2015,12,10,10,59,8.10
2015,12,10,11,00,8.10
2015,12,10,11,01,8.10
2015,12,10,11,02,8.00
2015,12,10,11,03,8.00
2015,12,10,11,04,8.00
2015,12,10,11,05,8.00
2015,12,10,11,06,8.00
2015,12,10,11,07,8.00
2015,12,10,11,08,8.00
2015,12,10,11,09,8.00
2015,12,10,11,10,7.90
2015,12,10,11,11,7.90
2015,12,10,11,12,7.90
2015,12,10,11,13,7.90
2015,12,10,11,14,7.80
2015,12,10,11,15,7.80
2015,12,10,11,16,7.80
2015,12,10,11,17,7.70
2015,12,10,11,18,7.70
2015,12,10,11,19,7.70
2015,12,10,11,20,7.60
2015,12,10,11,21,7.60
2015,12,10,11,22,7.60
2015,12,10,11,23,7.60
2015,12,10,11,24,7.50
2015,12,10,11,25,7.50
2015,12,10,11,26,7.50
2015,12,10,11,27,7.50
2015,12,10,11,28,7.50
2015,12,10,11,29,7.40
2015,12,10,11,30,7.40
2015,12,10,11,31,7.40
2015,12,10,11,32,7.40
2015,12,10,11,33,7.40
2015,12,10,11,34,7.40
2015,12,10,11,35,7.40
2015,12,10,11,36,7.40
2015,12,10,11,37,7.30
2015,12,10,11,38,7.30
2015,12,10,11,39,7.30
2015,12,10,11,40,7.30
2015,12,10,11,41,7.30
2015,12,10,11,42,7.30
2015,12,10,11,43,7.30
2015,12,10,11,44,7.30
2015,12,10,11,45,7.30
2015,12,10,11,46,7.30
2015,12,10,11,47,7.20
2015,12,10,11,48,7.30
2015,12,10,11,49,7.30
2015,12,10,11,50,7.30
2015,12,10,11,51,7.30
2015,12,10,11,52,7.30
2015,12,10,11,53,7.30
2015,12,10,11,54,7.30
2015,12,10,11,55,7.30
2015,12,10,11,56,7.30
2015,12,10,11,57,7.30
2015,12,10,11,58,7.30
2015,12,10,11,59,7.30
2015,12,10,12,00,7.30
2015,12,10,12,01,7.30
2015,12,10,12,02,7.30
2015,12,10,12,03,7.30
2015,12,10,12,04,7.30
2015,12,10,12,05,7.30
2015,12,10,12,06,7.30
2015,12,10,12,07,7.30
2015,12,10,12,08,7.30
2015,12,10,12,09,7.30
2015,12,10,12,10,7.30
2015,12,10,12,11,7.30
2015,12,10,12,12,7.30
2015,12,10,12,13,7.30
2015,12,10,12,14,7.30
2015,12,10,12,15,7.30
2015,12,10,12,16,7.30
2015,12,10,12,17,7.30
2015,12,10,12,18,7.20
2015,12,10,12,19,7.20
2015,12,10,12,20,7.20
2015,12,10,12,21,7.20
2015,12,10,12,22,7.20
2015,12,10,12,23,7.20
2015,12,10,12,24,7.20
2015,12,10,12,25,7.20
2015,12,10,12,26,7.20
2015,12,10,12,27,7.20
2015,12,10,12,28,7.30
2015,12,10,12,29,7.30
2015,12,10,12,30,7.30
2015,12,10,12,31,7.30
2015,12,10,12,32,7.40
2015,12,10,12,33,7.40
2015,12,10,12,34,7.40
2015,12,10,12,35,7.50
2015,12,10,12,36,7.50
2015,12,10,12,37,7.60
2015,12,10,12,38,7.60
2015,12,10,12,39,7.60
2015,12,10,12,40,7.70
2015,12,10,12,41,7.70
2015,12,10,12,42,7.70
2015,12,10,12,43,7.70
2015,12,10,12,44,7.70
2015,12,10,12,45,7.70
2015,12,10,12,46,7.70
2015,12,10,12,47,7.70
2015,12,10,12,48,7.70
2015,12,10,12,49,7.60
2015,12,10,12,50,7.60
2015,12,10,12,51,7.60
2015,12,10,12,52,7.60
2015,12,10,12,53,7.60
2015,12,10,12,54,7.60
2015,12,10,12,55,7.60
2015,12,10,12,56,7.60
2015,12,10,12,57,7.60
2015,12,10,12,58,7.60
2015,12,10,12,59,7.60
2015,12,10,13,00,7.60
2015,12,10,13,01,7.60
2015,12,10,13,02,7.60
2015,12,10,13,03,7.60
2015,12,10,13,04,7.60
2015,12,10,13,05,7.60
2015,12,10,13,06,7.60
2015,12,10,13,07,7.60
2015,12,10,13,08,7.60
2015,12,10,13,09,7.60
2015,12,10,13,10,7.60
2015,12,10,13,11,7.60
2015,12,10,13,12,7.60
2015,12,10,13,13,7.60
2015,12,10,13,14,7.60
2015,12,10,13,15,7.60
2015,12,10,13,16,7.60
2015,12,10,13,17,7.60
2015,12,10,13,18,7.60
2015,12,10,13,19,7.60
2015,12,10,13,20,7.60
2015,12,10,13,21,7.60
2015,12,10,13,22,7.60
2015,12,10,13,23,7.60
2015,12,10,13,24,7.60
2015,12,10,13,25,7.60
2015,12,10,13,26,7.60
2015,12,10,13,27,7.60
2015,12,10,13,28,7.60
2015,12,10,13,29,7.60
2015,12,10,13,30,7.50
2015,12,10,13,31,7.50
2015,12,10,13,32,7.50
2015,12,10,13,33,7.50
2015,12,10,13,34,7.50
2015,12,10,13,35,7.50
2015,12,10,13,36,7.50
2015,12,10,13,37,7.50
2015,12,10,13,38,7.50
2015,12,10,13,39,7.50
2015,12,10,13,40,7.50
2015,12,10,13,41,7.40
2015,12,10,13,42,7.40
2015,12,10,13,43,7.40
2015,12,10,13,44,7.40
2015,12,10,13,45,7.40
2015,12,10,13,46,7.40
2015,12,10,13,47,7.40
2015,12,10,13,48,7.40
2015,12,10,13,49,7.40
2015,12,10,13,50,7.50
2015,12,10,13,51,7.50
2015,12,10,13,52,7.50
2015,12,10,13,53,7.50
2015,12,10,13,54,7.50
2015,12,10,13,55,7.60
2015,12,10,13,56,7.60
2015,12,10,13,57,7.60
2015,12,10,13,58,7.60
2015,12,10,13,59,7.60
2015,12,10,14,00,7.60
2015,12,10,14,01,7.60
2015,12,10,14,02,7.60
2015,12,10,14,03,7.60
2015,12,10,14,04,7.60
2015,12,10,14,05,7.60
2015,12,10,14,06,7.60
2015,12,10,14,07,7.60
2015,12,10,14,08,7.60
2015,12,10,14,09,7.60
2015,12,10,14,10,7.60
2015,12,10,14,11,7.60
2015,12,10,14,12,7.60
2015,12,10,14,13,7.60
2015,12,10,14,14,7.60
2015,12,10,14,15,7.60
2015,12,10,14,16,7.60
2015,12,10,14,17,7.60
2015,12,10,14,18,7.50
2015,12,10,14,19,7.50
2015,12,10,14,20,7.50
2015,12,10,14,21,7.40
2015,12,10,14,22,7.40
2015,12,10,14,23,7.40
2015,12,10,14,24,7.40
2015,12,10,14,25,7.40
2015,12,10,14,26,7.40
2015,12,10,14,27,7.40
2015,12,10,14,28,7.40
2015,12,10,14,29,7.40
2015,12,10,14,30,7.30
2015,12,10,14,31,7.30
2015,12,10,14,32,7.30
2015,12,10,14,33,7.30
2015,12,10,14,34,7.30
2015,12,10,14,35,7.30
2015,12,10,14,36,7.30
2015,12,10,14,37,7.30
2015,12,10,14,38,7.40
2015,12,10,14,39,7.40
2015,12,10,14,40,7.40
2015,12,10,14,41,7.40
2015,12,10,14,42,7.40
2015,12,10,14,43,7.40
2015,12,10,14,44,7.40
2015,12,10,14,45,7.30
2015,12,10,14,46,7.30
2015,12,10,14,47,7.30
2015,12,10,14,48,7.30
2015,12,10,14,49,7.30
2015,12,10,14,50,7.30
2015,12,10,14,51,7.30
2015,12,10,14,52,7.30
2015,12,10,14,53,7.30
2015,12,10,14,54,7.30
2015,12,10,14,55,7.20
2015,12,10,14,56,7.20
2015,12,10,14,57,7.20
2015,12,10,14,58,7.20
2015,12,10,14,59,7.20
2015,12,10,15,00,7.20
2015,12,10,15,01,7.20
2015,12,10,15,02,7.10
2015,12,10,15,03,7.10
2015,12,10,15,04,7.10
2015,12,10,15,05,7.10
2015,12,10,15,06,7.10
2015,12,10,15,07,7.10
2015,12,10,15,08,7.10
2015,12,10,15,09,7.10
2015,12,10,15,10,7.10
2015,12,10,15,11,7.10
2015,12,10,15,12,7.10
2015,12,10,15,13,7.10
2015,12,10,15,14,7.10
2015,12,10,15,15,7.10
2015,12,10,15,16,7.10
2015,12,10,15,17,7.10
2015,12,10,15,18,7.10
2015,12,10,15,19,7.10
2015,12,10,15,20,7.10
2015,12,10,15,21,7.00
2015,12,10,15,22,7.00
2015,12,10,15,23,7.00
2015,12,10,15,24,7.00
2015,12,10,15,25,7.00
2015,12,10,15,26,7.00
2015,12,10,15,27,7.00
2015,12,10,15,28,7.00
2015,12,10,15,29,7.00
2015,12,10,15,30,7.00
2015,12,10,15,31,7.00
2015,12,10,15,32,7.00
2015,12,10,15,33,7.10
2015,12,10,15,34,7.10
2015,12,10,15,35,7.10
2015,12,10,15,36,7.10
2015,12,10,15,37,7.10
2015,12,10,15,38,7.10
2015,12,10,15,39,7.10
2015,12,10,15,40,7.10
2015,12,10,15,41,7.10
2015,12,10,15,42,7.20
2015,12,10,15,43,7.20
2015,12,10,15,44,7.20
2015,12,10,15,45,7.20
2015,12,10,15,46,7.20
2015,12,10,15,47,7.20
2015,12,10,15,48,7.10
2015,12,10,15,49,7.10
2015,12,10,15,50,7.10
2015,12,10,15,51,7.10
2015,12,10,15,52,7.10
2015,12,10,15,53,7.10
2015,12,10,15,54,7.10
2015,12,10,15,55,7.10
2015,12,10,15,56,7.10
2015,12,10,15,57,7.10
2015,12,10,15,58,7.10
2015,12,10,15,59,7.10
2015,12,10,16,00,7.10
2015,12,10,16,01,7.10
2015,12,10,16,02,7.10
2015,12,10,16,03,7.10
2015,12,10,16,04,7.10
2015,12,10,16,05,7.10
2015,12,10,16,06,7.10
2015,12,10,16,07,7.20
2015,12,10,16,08,7.20
2015,12,10,16,09,7.20
2015,12,10,16,10,7.20
2015,12,10,16,11,7.20
2015,12,10,16,12,7.20
2015,12,10,16,13,7.20
2015,12,10,16,14,7.20
2015,12,10,16,15,7.20
2015,12,10,16,16,7.20
2015,12,10,16,17,7.20
2015,12,10,16,18,7.20
2015,12,10,16,19,7.20
2015,12,10,16,20,7.20
2015,12,10,16,21,7.20
2015,12,10,16,22,7.20
2015,12,10,16,23,7.10
2015,12,10,16,24,7.10
2015,12,10,16,25,7.10
2015,12,10,16,26,7.10
2015,12,10,16,27,7.10
2015,12,10,16,28,7.00
2015,12,10,16,29,7.00
2015,12,10,16,30,7.00
2015,12,10,16,31,7.00
2015,12,10,16,32,7.00
2015,12,10,16,33,6.90
2015,12,10,16,34,6.90
2015,12,10,16,35,6.90
2015,12,10,16,36,6.90
2015,12,10,16,37,6.90
2015,12,10,16,38,6.90
2015,12,10,16,39,6.90
2015,12,10,16,40,6.90
2015,12,10,16,41,6.90
2015,12,10,16,42,6.90
2015,12,10,16,43,6.90
2015,12,10,16,44,6.80
2015,12,10,16,45,6.80
2015,12,10,16,46,6.80
2015,12,10,16,47,6.80
2015,12,10,16,48,6.80
2015,12,10,16,49,6.80
2015,12,10,16,50,6.80
2015,12,10,16,51,6.80
2015,12,10,16,52,6.80
2015,12,10,16,53,6.70
2015,12,10,16,54,6.70
2015,12,10,16,55,6.70
2015,12,10,16,56,6.70
2015,12,10,16,57,6.70
2015,12,10,16,58,6.70
2015,12,10,16,59,6.70
2015,12,10,17,00,6.70
2015,12,10,17,01,6.60
2015,12,10,17,02,6.60
2015,12,10,17,03,6.60
2015,12,10,17,04,6.60
2015,12,10,17,05,6.60
2015,12,10,17,06,6.60
2015,12,10,17,07,6.60
2015,12,10,17,08,6.60
2015,12,10,17,09,6.60
2015,12,10,17,10,6.50
2015,12,10,17,11,6.50
2015,12,10,17,12,6.50
2015,12,10,17,13,6.50
2015,12,10,17,14,6.40
2015,12,10,17,15,6.40
2015,12,10,17,16,6.40
2015,12,10,17,17,6.40
2015,12,10,17,18,6.40
2015,12,10,17,19,6.40
2015,12,10,17,20,6.40
2015,12,10,17,21,6.40
2015,12,10,17,22,6.40
2015,12,10,17,23,6.40
2015,12,10,17,24,6.40
2015,12,10,17,25,6.40
2015,12,10,17,26,6.40
2015,12,10,17,27,6.40
2015,12,10,17,28,6.40
2015,12,10,17,29,6.40
2015,12,10,17,30,6.40
2015,12,10,17,31,6.40
2015,12,10,17,32,6.40
2015,12,10,17,33,6.50
2015,12,10,17,34,6.50
2015,12,10,17,35,6.50
2015,12,10,17,36,6.50
2015,12,10,17,37,6.60
2015,12,10,17,38,6.60
2015,12,10,17,39,6.60
2015,12,10,17,40,6.60
2015,12,10,17,41,6.60
2015,12,10,17,42,6.60
2015,12,10,17,43,6.60
2015,12,10,17,44,6.60
2015,12,10,17,45,6.60
2015,12,10,17,46,6.60
2015,12,10,17,47,6.60
2015,12,10,17,48,6.60
2015,12,10,17,49,6.60
2015,12,10,17,50,6.60
2015,12,10,17,51,6.60
2015,12,10,17,52,6.60
2015,12,10,17,53,6.60
2015,12,10,17,54,6.60
2015,12,10,17,55,6.70
2015,12,10,17,56,6.70
2015,12,10,17,57,6.70
2015,12,10,17,58,6.70
2015,12,10,17,59,6.70
2015,12,10,18,00,6.70
2015,12,10,18,01,6.70
2015,12,10,18,02,6.70
2015,12,10,18,03,6.80
2015,12,10,18,04,6.80
2015,12,10,18,05,6.80
2015,12,10,18,06,6.80
2015,12,10,18,07,6.80
2015,12,10,18,08,6.90
2015,12,10,18,09,6.90